owner,sensor,date,latitude,longitude,vertical_datum,wind_speed,wind_to_direction,wind_speed_of_gust,qcFlag 
TABS,ioos:station:wmo:42045:1,2009-01-01T00:00:00Z,26.2168,-96.4998,4.0,7.702220459,77.17226248,9.23,'11111222,11111222,11111222' 
TABS,ioos:station:wmo:42045:1,2009-01-01T00:30:00Z,26.2168,-96.4998,4.0,7.288195936,73.00670711,8.69,'11111222,11111222,11111222' 
TABS,ioos:station:wmo:42045:1,2009-01-01T01:00:00Z,26.2168,-96.4998,4.0,7.108825501,71.71759733,8.77,'11111222,11111222,11111222' 
TABS,ioos:station:wmo:42045:1,2009-01-01T01:30:00Z,26.2168,-96.4998,4.0,7.749193506,72.73380996,9.3,'11111222,11111222,11111222' 
TABS,ioos:station:wmo:42045:1,2009-01-01T02:00:00Z,26.2168,-96.4998,4.0,7.64916989,68.76851528,9.12,'11111222,11111222,11111222' 
TABS,ioos:station:wmo:42045:1,2009-01-01T02:30:00Z,26.2168,-96.4998,4.0,7.209993065,71.56467337,8.67,'11111222,11111222,11111222' 
TABS,ioos:station:wmo:42045:1,2009-01-01T03:00:00Z,26.2168,-96.4998,4.0,6.408884458,60.35456612,7.87,'11111222,11111222,11111222' 
TABS,ioos:station:wmo:42045:1,2009-01-01T03:30:00Z,26.2168,-96.4998,4.0,6.302483637,62.29614649,7.32,'11111222,11111222,11111222' 
TABS,ioos:station:wmo:42045:1,2009-01-01T04:00:00Z,26.2168,-96.4998,4.0,6.774075583,65.2126817,8.05,'11111222,11111222,11111222' 
TABS,ioos:station:wmo:42045:1,2009-01-01T04:30:00Z,26.2168,-96.4998,4.0,6.404037789,52.93293767,7.52,'11111222,11111222,11111222' 
TABS,ioos:station:wmo:42045:1,2009-01-01T05:00:00Z,26.2168,-96.4998,4.0,7.184740775,58.25631743,8.61,'11111222,11111222,11111222' 
TABS,ioos:station:wmo:42045:1,2009-01-01T05:30:00Z,26.2168,-96.4998,4.0,7.374801692,65.48495407,8.6,'11111222,11111222,11111222' 
TABS,ioos:station:wmo:42045:1,2009-01-01T06:00:00Z,26.2168,-96.4998,4.0,7.384808731,66.45466511,8.84,'11111222,11111222,11111222' 
TABS,ioos:station:wmo:42045:1,2009-01-01T06:30:00Z,26.2168,-96.4998,4.0,6.369631073,70.65439214,7.43,'11111222,11111222,11111222' 
TABS,ioos:station:wmo:42045:1,2009-01-01T07:00:00Z,26.2168,-96.4998,4.0,6.062087099,71.53478519,7.3,'11111222,11111222,11111222' 
TABS,ioos:station:wmo:42045:1,2009-01-01T07:30:00Z,26.2168,-96.4998,4.0,7.65800235,92.61996359,9.31,'11111222,11111222,11111222' 
TABS,ioos:station:wmo:42045:1,2009-01-01T08:00:00Z,26.2168,-96.4998,4.0,7.013879098,105.4632777,8.35,'11111222,11111222,11111222' 
TABS,ioos:station:wmo:42045:1,2009-01-01T08:30:00Z,26.2168,-96.4998,4.0,4.919562989,128.3145502,5.8,'11111222,11111222,11111222' 
TABS,ioos:station:wmo:42045:1,2009-01-01T09:00:00Z,26.2168,-96.4998,4.0,3.676424894,115.7987257,4.89,'11111222,11111222,11111222' 
TABS,ioos:station:wmo:42045:1,2009-01-01T09:30:00Z,26.2168,-96.4998,4.0,2.98377278,115.1912652,3.9,'11111222,11111222,11111222' 
TABS,ioos:station:wmo:42045:1,2009-01-01T10:00:00Z,26.2168,-96.4998,4.0,2.114828598,186.7891692,2.88,'11111222,11111222,11111222' 
TABS,ioos:station:wmo:42045:1,2009-01-01T10:30:00Z,26.2168,-96.4998,4.0,3.687560169,219.3879151,5.44,'11111222,11111222,11111222' 
TABS,ioos:station:wmo:42045:1,2009-01-01T11:00:00Z,26.2168,-96.4998,4.0,3.489068644,236.2189213,4.44,'11111222,11111222,11111222' 
TABS,ioos:station:wmo:42045:1,2009-01-01T11:30:00Z,26.2168,-96.4998,4.0,3.448941867,255.560873,4.21,'11111222,11111222,11111222' 
TABS,ioos:station:wmo:42045:1,2009-01-01T12:00:00Z,26.2168,-96.4998,4.0,3.251861006,253.0138971,4.14,'11111222,11111222,11111222' 
TABS,ioos:station:wmo:42045:1,2009-01-01T12:30:00Z,26.2168,-96.4998,4.0,2.712802978,259.808522,3.38,'11111222,11111222,11111222' 
TABS,ioos:station:wmo:42045:1,2009-01-01T13:00:00Z,26.2168,-96.4998,4.0,2.52051582,227.8946112,3.29,'11111222,11111222,11111222' 
TABS,ioos:station:wmo:42045:1,2009-01-01T13:30:00Z,26.2168,-96.4998,4.0,2.518729839,226.9306882,3.25,'11111222,11111222,11111222' 
TABS,ioos:station:wmo:42045:1,2009-01-01T14:00:00Z,26.2168,-96.4998,4.0,2.015266732,225.2011418,2.84,'11111222,11111222,11111222' 
TABS,ioos:station:wmo:42045:1,2009-01-01T14:30:00Z,26.2168,-96.4998,4.0,2.681510768,231.2068039,3.58,'11111222,11111222,11111222' 
TABS,ioos:station:wmo:42045:1,2009-01-01T15:00:00Z,26.2168,-96.4998,4.0,2.74810844,251.1035743,3.56,'11111222,11111222,11111222' 
TABS,ioos:station:wmo:42045:1,2009-01-01T15:30:00Z,26.2168,-96.4998,4.0,2.682629307,227.5683731,3.72,'11111222,11111222,11111222' 
TABS,ioos:station:wmo:42045:1,2009-01-01T16:00:00Z,26.2168,-96.4998,4.0,3.029719459,222.3246848,4.16,'11111222,11111222,11111222' 
TABS,ioos:station:wmo:42045:1,2009-01-01T16:30:00Z,26.2168,-96.4998,4.0,3.036379423,232.224404,3.83,'11111222,11111222,11111222' 
TABS,ioos:station:wmo:42045:1,2009-01-01T17:00:00Z,26.2168,-96.4998,4.0,3.744489284,236.989039,4.44,'11111222,11111222,11111222' 
TABS,ioos:station:wmo:42045:1,2009-01-01T17:30:00Z,26.2168,-96.4998,4.0,4.671241805,241.6245445,5.46,'11111222,11111222,11111222' 
TABS,ioos:station:wmo:42045:1,2009-01-01T18:00:00Z,26.2168,-96.4998,4.0,4.253104748,260.9363489,5.07,'11111222,11111222,11111222' 
TABS,ioos:station:wmo:42045:1,2009-01-01T18:30:00Z,26.2168,-96.4998,4.0,3.695361958,262.0672602,4.46,'11111222,11111222,11111222' 
TABS,ioos:station:wmo:42045:1,2009-01-01T19:00:00Z,26.2168,-96.4998,4.0,3.448840385,264.0083994,4.24,'11111222,11111222,11111222' 
TABS,ioos:station:wmo:42045:1,2009-01-01T19:30:00Z,26.2168,-96.4998,4.0,2.344461559,263.632835,3.42,'11111222,11111222,11111222' 
TABS,ioos:station:wmo:42045:1,2009-01-01T20:00:00Z,26.2168,-96.4998,4.0,1.392910622,240.3062084,2.56,'11111222,11111222,11111222' 
TABS,ioos:station:wmo:42045:1,2009-01-01T20:30:00Z,26.2168,-96.4998,4.0,1.861961331,241.0949044,2.89,'11111222,11111222,11111222' 
TABS,ioos:station:wmo:42045:1,2009-01-01T21:00:00Z,26.2168,-96.4998,4.0,2.294013949,196.4601868,3.08,'11111222,11111222,11111222' 
TABS,ioos:station:wmo:42045:1,2009-01-01T21:30:00Z,26.2168,-96.4998,4.0,2.850491186,192.7688094,3.38,'11111222,11111222,11111222' 
TABS,ioos:station:wmo:42045:1,2009-01-01T22:00:00Z,26.2168,-96.4998,4.0,3.512790913,177.7161248,4.29,'11111222,11111222,11111222' 
TABS,ioos:station:wmo:42045:1,2009-01-01T22:30:00Z,26.2168,-96.4998,4.0,4.475913315,182.945711,5.29,'11111222,11111222,11111222' 
TABS,ioos:station:wmo:42045:1,2009-01-01T23:00:00Z,26.2168,-96.4998,4.0,3.569229609,185.9503859,4.53,'11111222,11111222,11111222' 
TABS,ioos:station:wmo:42045:1,2009-01-01T23:30:00Z,26.2168,-96.4998,4.0,3.290972501,178.6072778,4.13,'11111222,11111222,11111222' 
TABS,ioos:station:wmo:42045:1,2009-01-02T00:00:00Z,26.2168,-96.4998,4.0,2.869320477,166.4967419,3.48,'11111222,11111222,11111222' 
TABS,ioos:station:wmo:42045:1,2009-01-02T00:30:00Z,26.2168,-96.4998,4.0,3.584313044,174.8781549,4.25,'11111222,11111222,11111222' 
TABS,ioos:station:wmo:42045:1,2009-01-02T01:00:00Z,26.2168,-96.4998,4.0,3.91781827,167.1700458,4.92,'11111222,11111222,11111222' 
TABS,ioos:station:wmo:42045:1,2009-01-02T01:30:00Z,26.2168,-96.4998,4.0,3.760757902,172.6673449,4.48,'11111222,11111222,11111222' 
TABS,ioos:station:wmo:42045:1,2009-01-02T02:00:00Z,26.2168,-96.4998,4.0,4.068967928,176.1955112,4.81,'11111222,11111222,11111222' 
TABS,ioos:station:wmo:42045:1,2009-01-02T02:30:00Z,26.2168,-96.4998,4.0,4.50525249,169.5133894,5.88,'11111222,11111222,11111222' 
TABS,ioos:station:wmo:42045:1,2009-01-02T03:00:00Z,26.2168,-96.4998,4.0,4.991192242,170.3114466,6.34,'11111222,11111222,11111222' 
TABS,ioos:station:wmo:42045:1,2009-01-02T03:30:00Z,26.2168,-96.4998,4.0,5.745763657,170.6854525,6.84,'11111222,11111222,11111222' 
TABS,ioos:station:wmo:42045:1,2009-01-02T04:00:00Z,26.2168,-96.4998,4.0,6.017682278,171.3988457,7.44,'11111222,11111222,11111222' 
TABS,ioos:station:wmo:42045:1,2009-01-02T04:30:00Z,26.2168,-96.4998,4.0,6.028100862,172.7573187,7.36,'11111222,11111222,11111222' 
TABS,ioos:station:wmo:42045:1,2009-01-02T05:00:00Z,26.2168,-96.4998,4.0,5.813200495,170.294859,7.65,'11111222,11111222,11111222' 
TABS,ioos:station:wmo:42045:1,2009-01-02T05:30:00Z,26.2168,-96.4998,4.0,5.750347816,173.208896,6.88,'11111222,11111222,11111222' 
TABS,ioos:station:wmo:42045:1,2009-01-02T06:00:00Z,26.2168,-96.4998,4.0,6.490123265,179.6470831,8.16,'11111222,11111222,11111222' 
TABS,ioos:station:wmo:42045:1,2009-01-02T06:30:00Z,26.2168,-96.4998,4.0,6.710208641,183.1610877,7.87,'11111222,11111222,11111222' 
TABS,ioos:station:wmo:42045:1,2009-01-02T07:00:00Z,26.2168,-96.4998,4.0,6.434858196,182.2267579,7.79,'11111222,11111222,11111222' 
TABS,ioos:station:wmo:42045:1,2009-01-02T07:30:00Z,26.2168,-96.4998,4.0,6.392824102,181.7033351,7.54,'11111222,11111222,11111222' 
TABS,ioos:station:wmo:42045:1,2009-01-02T08:00:00Z,26.2168,-96.4998,4.0,5.96953097,189.9358871,7.03,'11111222,11111222,11111222' 
TABS,ioos:station:wmo:42045:1,2009-01-02T08:30:00Z,26.2168,-96.4998,4.0,6.291406838,191.274396,8.13,'11111222,11111222,11111222' 
TABS,ioos:station:wmo:42045:1,2009-01-02T09:00:00Z,26.2168,-96.4998,4.0,5.700192979,190.2061388,6.99,'11111222,11111222,11111222' 
TABS,ioos:station:wmo:42045:1,2009-01-02T09:30:00Z,26.2168,-96.4998,4.0,5.350476614,193.6208661,6.46,'11111222,11111222,11111222' 
TABS,ioos:station:wmo:42045:1,2009-01-02T10:00:00Z,26.2168,-96.4998,4.0,6.901622998,189.8446578,8.05,'11111222,11111222,11111222' 
TABS,ioos:station:wmo:42045:1,2009-01-02T10:30:00Z,26.2168,-96.4998,4.0,6.458211827,190.9795349,8.03,'11111222,11111222,11111222' 
TABS,ioos:station:wmo:42045:1,2009-01-02T11:00:00Z,26.2168,-96.4998,4.0,6.256932156,184.2163017,7.46,'11111222,11111222,11111222' 
TABS,ioos:station:wmo:42045:1,2009-01-02T11:30:00Z,26.2168,-96.4998,4.0,6.911910011,186.312925,8.2,'11111222,11111222,11111222' 
TABS,ioos:station:wmo:42045:1,2009-01-02T12:00:00Z,26.2168,-96.4998,4.0,6.663947779,188.5437102,7.83,'11111222,11111222,11111222' 
TABS,ioos:station:wmo:42045:1,2009-01-02T12:30:00Z,26.2168,-96.4998,4.0,5.849829057,185.7887567,6.85,'11111222,11111222,11111222' 
TABS,ioos:station:wmo:42045:1,2009-01-02T13:00:00Z,26.2168,-96.4998,4.0,5.731256407,181.1999439,6.8,'11111222,11111222,11111222' 
TABS,ioos:station:wmo:42045:1,2009-01-02T13:30:00Z,26.2168,-96.4998,4.0,6.12751173,185.4316646,7.24,'11111222,11111222,11111222' 
TABS,ioos:station:wmo:42045:1,2009-01-02T14:00:00Z,26.2168,-96.4998,4.0,5.423292358,186.3520542,6.62,'11111222,11111222,11111222' 
TABS,ioos:station:wmo:42045:1,2009-01-02T14:30:00Z,26.2168,-96.4998,4.0,5.656014498,187.313682,6.53,'11111222,11111222,11111222' 
TABS,ioos:station:wmo:42045:1,2009-01-02T15:00:00Z,26.2168,-96.4998,4.0,5.486292008,186.5941104,6.44,'11111222,11111222,11111222' 
TABS,ioos:station:wmo:42045:1,2009-01-02T15:30:00Z,26.2168,-96.4998,4.0,5.964109322,183.9420826,6.91,'11111222,11111222,11111222' 
TABS,ioos:station:wmo:42045:1,2009-01-02T16:00:00Z,26.2168,-96.4998,4.0,6.550457999,183.2382555,7.67,'11111222,11111222,11111222' 
TABS,ioos:station:wmo:42045:1,2009-01-02T16:30:00Z,26.2168,-96.4998,4.0,5.96405902,182.1141906,6.98,'11111222,11111222,11111222' 
TABS,ioos:station:wmo:42045:1,2009-01-02T17:00:00Z,26.2168,-96.4998,4.0,6.031401164,181.2352486,6.95,'11111222,11111222,11111222' 
TABS,ioos:station:wmo:42045:1,2009-01-02T17:30:00Z,26.2168,-96.4998,4.0,5.943710962,177.9754501,7.14,'11111222,11111222,11111222' 
TABS,ioos:station:wmo:42045:1,2009-01-02T18:00:00Z,26.2168,-96.4998,4.0,5.601428389,173.0274575,6.69,'11111222,11111222,11111222' 
TABS,ioos:station:wmo:42045:1,2009-01-02T18:30:00Z,26.2168,-96.4998,4.0,6.137833494,171.4740806,7.12,'11111222,11111222,11111222' 
TABS,ioos:station:wmo:42045:1,2009-01-02T19:00:00Z,26.2168,-96.4998,4.0,6.013667766,177.9990137,7.12,'11111222,11111222,11111222' 
TABS,ioos:station:wmo:42045:1,2009-01-02T19:30:00Z,26.2168,-96.4998,4.0,5.378029379,184.693062,6.86,'11111222,11111222,11111222' 
TABS,ioos:station:wmo:42045:1,2009-01-02T20:00:00Z,26.2168,-96.4998,4.0,6.08237618,181.6018096,7.15,'11111222,11111222,11111222' 
TABS,ioos:station:wmo:42045:1,2009-01-02T20:30:00Z,26.2168,-96.4998,4.0,5.968534158,184.5167067,6.87,'11111222,11111222,11111222' 
TABS,ioos:station:wmo:42045:1,2009-01-02T21:00:00Z,26.2168,-96.4998,4.0,6.202612353,181.6631653,7.93,'11111222,11111222,11111222' 
TABS,ioos:station:wmo:42045:1,2009-01-02T21:30:00Z,26.2168,-96.4998,4.0,6.903194913,178.2569681,8.16,'11111222,11111222,11111222' 
TABS,ioos:station:wmo:42045:1,2009-01-02T22:00:00Z,26.2168,-96.4998,4.0,6.378087488,175.684193,7.78,'11111222,11111222,11111222' 
TABS,ioos:station:wmo:42045:1,2009-01-02T22:30:00Z,26.2168,-96.4998,4.0,7.328847113,177.1846604,8.66,'11111222,11111222,11111222' 
TABS,ioos:station:wmo:42045:1,2009-01-02T23:00:00Z,26.2168,-96.4998,4.0,7.308960254,174.8980571,8.23,'11111222,11111222,11111222' 
TABS,ioos:station:wmo:42045:1,2009-01-02T23:30:00Z,26.2168,-96.4998,4.0,7.744856358,175.4086015,9.25,'11111222,11111222,11111222' 
TABS,ioos:station:wmo:42045:1,2009-01-03T00:00:00Z,26.2168,-96.4998,4.0,7.409082264,174.1126503,9.01,'11111222,11111222,11111222' 
TABS,ioos:station:wmo:42045:1,2009-01-03T00:30:00Z,26.2168,-96.4998,4.0,7.465393493,170.3612672,8.73,'11111222,11111222,11111222' 
TABS,ioos:station:wmo:42045:1,2009-01-03T01:00:00Z,26.2168,-96.4998,4.0,7.654645648,170.9809091,9.28,'11111222,11111222,11111222' 
TABS,ioos:station:wmo:42045:1,2009-01-03T01:30:00Z,26.2168,-96.4998,4.0,7.378306039,169.2994856,8.6,'11111222,11111222,11111222' 
TABS,ioos:station:wmo:42045:1,2009-01-03T02:00:00Z,26.2168,-96.4998,4.0,7.297848998,170.1377896,8.59,'11111222,11111222,11111222' 
TABS,ioos:station:wmo:42045:1,2009-01-03T02:30:00Z,26.2168,-96.4998,4.0,8.000531232,167.8054457,9.81,'11111222,11111222,11111222' 
TABS,ioos:station:wmo:42045:1,2009-01-03T03:00:00Z,26.2168,-96.4998,4.0,7.831123802,169.1064188,9.7,'11111222,11111222,11111222' 
TABS,ioos:station:wmo:42045:1,2009-01-03T03:30:00Z,26.2168,-96.4998,4.0,8.168996266,173.110099,10.42,'11111222,11111222,11111222' 
TABS,ioos:station:wmo:42045:1,2009-01-03T04:00:00Z,26.2168,-96.4998,4.0,7.89856316,167.7940215,9.52,'11111222,11111222,11111222' 
TABS,ioos:station:wmo:42045:1,2009-01-03T04:30:00Z,26.2168,-96.4998,4.0,8.53731808,172.8002928,10.27,'11111222,11111222,11111222' 
TABS,ioos:station:wmo:42045:1,2009-01-03T05:00:00Z,26.2168,-96.4998,4.0,8.08485003,178.015512,9.79,'11111222,11111222,11111222' 
TABS,ioos:station:wmo:42045:1,2009-01-03T05:30:00Z,26.2168,-96.4998,4.0,7.402492823,173.1728229,8.83,'11111222,11111222,11111222' 
TABS,ioos:station:wmo:42045:1,2009-01-03T06:00:00Z,26.2168,-96.4998,4.0,8.131727984,171.8701271,10.23,'11111222,11111222,11111222' 
TABS,ioos:station:wmo:42045:1,2009-01-03T06:30:00Z,26.2168,-96.4998,4.0,6.643643579,184.8354605,8.76,'11111222,11111222,11111222' 
TABS,ioos:station:wmo:42045:1,2009-01-03T07:00:00Z,26.2168,-96.4998,4.0,6.336639488,182.6232953,7.89,'11111222,11111222,11111222' 
TABS,ioos:station:wmo:42045:1,2009-01-03T07:30:00Z,26.2168,-96.4998,4.0,5.655174622,199.5244994,6.91,'11111222,11111222,11111222' 
TABS,ioos:station:wmo:42045:1,2009-01-03T08:00:00Z,26.2168,-96.4998,4.0,2.875708608,219.7801784,3.73,'11111222,11111222,11111222' 
TABS,ioos:station:wmo:42045:1,2009-01-03T08:30:00Z,26.2168,-96.4998,4.0,2.549117494,206.5651995,3.59,'11111222,11111222,11111222' 
TABS,ioos:station:wmo:42045:1,2009-01-03T09:00:00Z,26.2168,-96.4998,4.0,2.768266606,243.6201335,3.43,'11111222,11111222,11111222' 
TABS,ioos:station:wmo:42045:1,2009-01-03T09:30:00Z,26.2168,-96.4998,4.0,3.95132889,278.2941363,5.82,'11111222,11111222,11111222' 
TABS,ioos:station:wmo:42045:1,2009-01-03T10:00:00Z,26.2168,-96.4998,4.0,3.507962372,291.2250851,4.42,'11111222,11111222,11111222' 
TABS,ioos:station:wmo:42045:1,2009-01-03T10:30:00Z,26.2168,-96.4998,4.0,2.478870711,298.4259258,3.53,'11111222,11111222,11111222' 
TABS,ioos:station:wmo:42045:1,2009-01-03T11:00:00Z,26.2168,-96.4998,4.0,1.281600562,290.5559972,2.11,'11111222,11111222,11111222' 
TABS,ioos:station:wmo:42045:1,2009-01-03T11:30:00Z,26.2168,-96.4998,4.0,0.147648231,208.3009,0.66,'11111222,11111222,11111222' 
TABS,ioos:station:wmo:42045:1,2009-01-03T12:00:00Z,26.2168,-96.4998,4.0,0.45607017,127.875316,1.18,'11111222,11111222,11111222' 
TABS,ioos:station:wmo:42045:1,2009-01-03T12:30:00Z,26.2168,-96.4998,4.0,0.828070045,222.5530623,1.24,'11111222,11111222,11111222' 
TABS,ioos:station:wmo:42045:1,2009-01-03T13:00:00Z,26.2168,-96.4998,4.0,2.116459307,140.36804,2.7,'11111222,11111222,11111222' 
TABS,ioos:station:wmo:42045:1,2009-01-03T13:30:00Z,26.2168,-96.4998,4.0,3.823414704,139.5615512,4.53,'11111222,11111222,11111222' 
TABS,ioos:station:wmo:42045:1,2009-01-03T14:00:00Z,26.2168,-96.4998,4.0,5.060405122,144.8969645,6.12,'11111222,11111222,11111222' 
TABS,ioos:station:wmo:42045:1,2009-01-03T14:30:00Z,26.2168,-96.4998,4.0,5.963027754,146.2835726,7.02,'11111222,11111222,11111222' 
TABS,ioos:station:wmo:42045:1,2009-01-03T15:00:00Z,26.2168,-96.4998,4.0,7.868036604,142.9556289,9.09,'11111222,11111222,11111222' 
TABS,ioos:station:wmo:42045:1,2009-01-03T15:30:00Z,26.2168,-96.4998,4.0,8.373971579,147.0882863,10.05,'11111222,11111222,11111222' 
TABS,ioos:station:wmo:42045:1,2009-01-03T16:00:00Z,26.2168,-96.4998,4.0,8.653999076,147.02638,10.09,'11111222,11111222,11111222' 
TABS,ioos:station:wmo:42045:1,2009-01-03T16:30:00Z,26.2168,-96.4998,4.0,8.269679558,156.7834793,9.68,'11111222,11111222,11111222' 
TABS,ioos:station:wmo:42045:1,2009-01-03T17:00:00Z,26.2168,-96.4998,4.0,7.970025094,167.4636346,9.77,'11111222,11111222,11111222' 
TABS,ioos:station:wmo:42045:1,2009-01-03T17:30:00Z,26.2168,-96.4998,4.0,7.603420283,172.5948102,9.15,'11111222,11111222,11111222' 
TABS,ioos:station:wmo:42045:1,2009-01-03T18:00:00Z,26.2168,-96.4998,4.0,6.996870729,177.4608658,8.9,'11111222,11111222,11111222' 
TABS,ioos:station:wmo:42045:1,2009-01-03T18:30:00Z,26.2168,-96.4998,4.0,7.271162218,178.9757758,8.41,'11111222,11111222,11111222' 
TABS,ioos:station:wmo:42045:1,2009-01-03T19:00:00Z,26.2168,-96.4998,4.0,6.312186626,195.2473324,7.62,'11111222,11111222,11111222' 
TABS,ioos:station:wmo:42045:1,2009-01-03T19:30:00Z,26.2168,-96.4998,4.0,5.307522963,197.2060775,6.48,'11111222,11111222,11111222' 
TABS,ioos:station:wmo:42045:1,2009-01-03T20:00:00Z,26.2168,-96.4998,4.0,5.093721626,196.65632,6.03,'11111222,11111222,11111222' 
TABS,ioos:station:wmo:42045:1,2009-01-03T20:30:00Z,26.2168,-96.4998,4.0,6.369089417,192.4216572,7.44,'11111222,11111222,11111222' 
TABS,ioos:station:wmo:42045:1,2009-01-03T21:00:00Z,26.2168,-96.4998,4.0,7.05866843,194.94205,8.4,'11111222,11111222,11111222' 
TABS,ioos:station:wmo:42045:1,2009-01-03T21:30:00Z,26.2168,-96.4998,4.0,6.112552658,195.8554412,7.14,'11111222,11111222,11111222' 
TABS,ioos:station:wmo:42045:1,2009-01-03T22:00:00Z,26.2168,-96.4998,4.0,6.078001316,194.2879167,7.46,'11111222,11111222,11111222' 
TABS,ioos:station:wmo:42045:1,2009-01-03T22:30:00Z,26.2168,-96.4998,4.0,6.51337854,190.7063004,7.75,'11111222,11111222,11111222' 
TABS,ioos:station:wmo:42045:1,2009-01-03T23:00:00Z,26.2168,-96.4998,4.0,6.43851691,191.4671861,7.62,'11111222,11111222,11111222' 
TABS,ioos:station:wmo:42045:1,2009-01-03T23:30:00Z,26.2168,-96.4998,4.0,6.13938922,185.6086425,7.14,'11111222,11111222,11111222' 
TABS,ioos:station:wmo:42045:1,2009-01-04T00:00:00Z,26.2168,-96.4998,4.0,6.000008333,179.9047178,7.04,'11111222,11111222,11111222' 
TABS,ioos:station:wmo:42045:1,2009-01-04T00:30:00Z,26.2168,-96.4998,4.0,6.292034647,181.4573371,7.32,'11111222,11111222,11111222' 
TABS,ioos:station:wmo:42045:1,2009-01-04T01:00:00Z,26.2168,-96.4998,4.0,5.638767596,187.5411193,6.87,'11111222,11111222,11111222' 
TABS,ioos:station:wmo:42045:1,2009-01-04T01:30:00Z,26.2168,-96.4998,4.0,6.133816104,185.0508598,7.03,'11111222,11111222,11111222' 
TABS,ioos:station:wmo:42045:1,2009-01-04T02:00:00Z,26.2168,-96.4998,4.0,6.429004589,185.4447545,7.57,'11111222,11111222,11111222' 
TABS,ioos:station:wmo:42045:1,2009-01-04T02:30:00Z,26.2168,-96.4998,4.0,5.942810783,183.7629707,6.86,'11111222,11111222,11111222' 
TABS,ioos:station:wmo:42045:1,2009-01-04T03:00:00Z,26.2168,-96.4998,4.0,6.540007645,179.9126025,7.6,'11111222,11111222,11111222' 
TABS,ioos:station:wmo:42045:1,2009-01-04T03:30:00Z,26.2168,-96.4998,4.0,6.560190546,179.5635143,7.78,'11111222,11111222,11111222' 
TABS,ioos:station:wmo:42045:1,2009-01-04T04:00:00Z,26.2168,-96.4998,4.0,6.368877452,184.4127051,7.35,'11111222,11111222,11111222' 
TABS,ioos:station:wmo:42045:1,2009-01-04T04:30:00Z,26.2168,-96.4998,4.0,6.420101245,183.2146858,7.67,'11111222,11111222,11111222' 
TABS,ioos:station:wmo:42045:1,2009-01-04T05:00:00Z,26.2168,-96.4998,4.0,5.784185336,177.8204596,6.92,'11111222,11111222,11111222' 
TABS,ioos:station:wmo:42045:1,2009-01-04T05:30:00Z,26.2168,-96.4998,4.0,5.730558437,179.2003232,6.62,'11111222,11111222,11111222' 
TABS,ioos:station:wmo:42045:1,2009-01-04T06:00:00Z,26.2168,-96.4998,4.0,5.450229353,179.4745771,6.33,'11111222,11111222,11111222' 
TABS,ioos:station:wmo:42045:1,2009-01-04T06:30:00Z,26.2168,-96.4998,4.0,4.774620404,177.4793884,5.93,'11111222,11111222,11111222' 
TABS,ioos:station:wmo:42045:1,2009-01-04T07:00:00Z,26.2168,-96.4998,4.0,4.319085551,176.2832108,5.34,'11111222,11111222,11111222' 
TABS,ioos:station:wmo:42045:1,2009-01-04T07:30:00Z,26.2168,-96.4998,4.0,3.705266522,172.0888117,4.4,'11111222,11111222,11111222' 
TABS,ioos:station:wmo:42045:1,2009-01-04T08:00:00Z,26.2168,-96.4998,4.0,3.734836007,177.0841859,4.34,'11111222,11111222,11111222' 
TABS,ioos:station:wmo:42045:1,2009-01-04T08:30:00Z,26.2168,-96.4998,4.0,4.002111942,178.1387572,4.54,'11111222,11111222,11111222' 
TABS,ioos:station:wmo:42045:1,2009-01-04T09:00:00Z,26.2168,-96.4998,4.0,4.233308399,172.8080609,4.86,'11111222,11111222,11111222' 
TABS,ioos:station:wmo:42045:1,2009-01-04T09:30:00Z,26.2168,-96.4998,4.0,4.071719538,174.0796036,4.75,'11111222,11111222,11111222' 
TABS,ioos:station:wmo:42045:1,2009-01-04T10:00:00Z,26.2168,-96.4998,4.0,4.256994245,162.5017029,4.93,'11111222,11111222,11111222' 
TABS,ioos:station:wmo:42045:1,2009-01-04T10:30:00Z,26.2168,-96.4998,4.0,3.70448377,155.0954999,4.56,'11111222,11111222,11111222' 
TABS,ioos:station:wmo:42045:1,2009-01-04T11:00:00Z,26.2168,-96.4998,4.0,4.278738132,155.7114651,4.89,'11111222,11111222,11111222' 
TABS,ioos:station:wmo:42045:1,2009-01-04T11:30:00Z,26.2168,-96.4998,4.0,4.559495586,151.5803679,5.28,'11111222,11111222,11111222' 
TABS,ioos:station:wmo:42045:1,2009-01-04T12:00:00Z,26.2168,-96.4998,4.0,5.572647486,156.7476727,6.38,'11111222,11111222,11111222' 
TABS,ioos:station:wmo:42045:1,2009-01-04T12:30:00Z,26.2168,-96.4998,4.0,5.15655893,150.9996351,5.89,'11111222,11111222,11111222' 
TABS,ioos:station:wmo:42045:1,2009-01-04T13:00:00Z,26.2168,-96.4998,4.0,4.638156962,154.3191728,5.25,'11111222,11111222,11111222' 
TABS,ioos:station:wmo:42045:1,2009-01-04T13:30:00Z,26.2168,-96.4998,4.0,4.504542152,147.0510724,5.3,'11111222,11111222,11111222' 
TABS,ioos:station:wmo:42045:1,2009-01-04T14:00:00Z,26.2168,-96.4998,4.0,4.674665763,147.6701003,5.38,'11111222,11111222,11111222' 
TABS,ioos:station:wmo:42045:1,2009-01-04T14:30:00Z,26.2168,-96.4998,4.0,4.433057636,150.5439586,5.09,'11111222,11111222,11111222' 
TABS,ioos:station:wmo:42045:1,2009-01-04T15:00:00Z,26.2168,-96.4998,4.0,4.584604672,146.206237,5.34,'11111222,11111222,11111222' 
TABS,ioos:station:wmo:42045:1,2009-01-04T15:30:00Z,26.2168,-96.4998,4.0,4.97001006,143.0151162,5.9,'11111222,11111222,11111222' 
TABS,ioos:station:wmo:42045:1,2009-01-04T16:00:00Z,26.2168,-96.4998,4.0,4.527471701,139.8382596,5.27,'11111222,11111222,11111222' 
TABS,ioos:station:wmo:42045:1,2009-01-04T16:30:00Z,26.2168,-96.4998,4.0,5.011756179,140.9119884,5.78,'11111222,11111222,11111222' 
TABS,ioos:station:wmo:42045:1,2009-01-04T17:00:00Z,26.2168,-96.4998,4.0,4.888240992,141.3954085,5.63,'11111222,11111222,11111222' 
TABS,ioos:station:wmo:42045:1,2009-01-04T17:30:00Z,26.2168,-96.4998,4.0,5.083561744,141.7101368,5.87,'11111222,11111222,11111222' 
TABS,ioos:station:wmo:42045:1,2009-01-04T18:00:00Z,26.2168,-96.4998,4.0,4.472191856,138.8987462,5.19,'11111222,11111222,11111222' 
TABS,ioos:station:wmo:42045:1,2009-01-04T18:30:00Z,26.2168,-96.4998,4.0,4.608709147,141.1657521,5.74,'11111222,11111222,11111222' 